Starlink 4478

operational
NORAD ID: 53529 Int'l Des: 2022-101 Owner: SPXS Country: US Constellation: starlink
LEOCIRCULAR

Über Starlink 4478

Beschreibung wird geladen...

Live-Position

3D-Globus wird geladen...

Nächste Überflüge

Höhenverlauf

Altitude vs Time

uPlot chart will show altitude changes over time

Zweizeiliger Elementsatz

1 53529U 22101C 25257.10991488 -.00000331 00000-0 -27389-5 0 9994
2 53529 53.2162 146.8274 0001290 88.0719 272.0420 15.08840667169505
Epoch: 14. Sept. 2025 • Age: 29 hours

Aktueller Status

Höhe 544.4 km
Geschwindigkeit 7.60 km/s
Subsatellitenpunkt 48.50°N, 153.52°E
Startdatum 19. Aug. 2022
Alter 3 years
Typ internet

Technische Details

Klassifizierung Payload
Masse 300.00 kg
Trockenmasse 290.00 kg
Gesamtmasse 300.00 kg
Länge 0.20 m
Durchmesser 2.80 m
Spannweite 9.00 m
Form Box + pan
Hersteller SPXS
Bus-Typ Starlink
Phasenstatus In Orbit
Besitzer/Staat SPXS/US

Große Konstellationen

Loading constellations...